Sterling, IL

4:10 PM CST on November 11, 2019 (GMT -0600)
Whiteside County-Bittorf

Weather History for KSQI - September, 2019

Change the Weather History Date:

Friday, September 13, 2019

  Actual Average Record
Temperature  
Mean Temperature 66 °F -  
Max Temperature 73 °F 74 °F 91 °F (2005)
Min Temperature 57 °F 51 °F 37 °F (2014)
Growing Degree Days 16 (Base 50)    
Moisture  
Dew Point 63 °F    
Average Humidity 85    
Maximum Humidity 100    
Minimum Humidity 61    
Precipitation  
Precipitation 0.27 in - - ()
Sea Level Pressure  
Sea Level Pressure 29.71 in    
Wind  
Wind Speed 10 mph ()    
Max Wind Speed 24 mph    
Max Gust Speed 33 mph    
Visibility 9.6 miles    
Events Rain , Thunderstorm    
Averages and records for this station are not official NWS values.
T = Trace of Precipitation, MM = Missing Value Source: Averaged Metar Reports

Daily Weather History Graph

Daily Weather History Graph

Search for Another Location

Airport or City:

Astronomy

Sep. 13, 2019 Rise Set
Actual Time 6:36 AM CDT 7:11 PM CDT
Civil Twilight 6:08 AM CDT 7:39 PM CDT
Nautical Twilight 5:35 AM CDT 8:12 PM CDT
Astronomical Twilight 5:01 AM CDT 8:46 PM CDT
Moon 7:26 PM CDT (9/13) 5:52 AM CDT (9/13)
Length of Visible Light 13h 31m
Length of Day
12h 35m
Full, 100% of the Moon is Illuminated
Sep 13
Full
Sep 13
Full
Sep 21
Last Quarter
Sep 28
New
Oct 5
First Quarter

Hourly Weather History & Observations

Time (CDT) Temp. Dew Point Humidity Pressure Visibility Wind Dir Wind Speed Gust Speed Precip Events Conditions
12:56 AM 71.1 °F 70.0 °F 96% 29.55 in 9.0 mi Variable 3.5 mph - 0.04 in Rain , Thunderstorm Light Thunderstorms and Rain
1:24 AM 69.8 °F 69.8 °F 100% 29.96 in 9.0 mi WSW 11.5 mph - 0.04 in Rain , Thunderstorm Rain
1:31 AM 69.8 °F 69.8 °F 100% 29.96 in 8.0 mi WSW 9.2 mph - 0.06 in Rain , Thunderstorm Rain
1:45 AM 69.8 °F 69.8 °F 100% 29.95 in 8.0 mi West 10.4 mph - 0.11 in Rain Rain
1:56 AM 71.1 °F 71.1 °F 100% 29.55 in 9.0 mi West 10.4 mph - 0.14 in Rain Light Rain
2:03 AM 71.6 °F 71.6 °F 100% 29.95 in 10.0 mi West 16.1 mph 20.7 mph 0.00 in Rain , Thunderstorm Light Rain
2:56 AM 69.1 °F 69.1 °F 100% 29.59 in 10.0 mi Variable 4.6 mph - 0.03 in Rain Light Rain
3:07 AM 69.8 °F 69.8 °F 100% 29.97 in 5.0 mi North - - 0.02 in Rain Rain
3:56 AM 70.0 °F 69.1 °F 97% 29.56 in 10.0 mi Calm Calm - 0.06 in   Mostly Cloudy
4:56 AM 69.1 °F 68.0 °F 96% 29.58 in 10.0 mi Variable 3.5 mph - N/A   Mostly Cloudy
5:56 AM 68.0 °F 68.0 °F 100% 29.59 in 10.0 mi Variable 4.6 mph - N/A   Clear
6:56 AM 68.0 °F 66.9 °F 96% 29.60 in 10.0 mi WSW 6.9 mph - N/A   Clear
7:56 AM 68.0 °F 66.9 °F 96% 29.61 in 10.0 mi West 15.0 mph - N/A   Clear
8:56 AM 68.0 °F 62.1 °F 81% 29.63 in 10.0 mi West 18.4 mph 23.0 mph N/A   Clear
9:56 AM 66.9 °F 61.0 °F 81% 29.64 in 10.0 mi West 19.6 mph - N/A   Clear
10:56 AM 70.0 °F 60.1 °F 71% 29.65 in 10.0 mi West 20.7 mph - N/A   Clear
11:56 AM 70.0 °F 59.0 °F 68% 29.66 in 10.0 mi West 24.2 mph - N/A   Partly Cloudy
12:56 PM 69.1 °F 57.0 °F 65% 29.67 in 10.0 mi WSW 21.9 mph 33.4 mph N/A   Mostly Cloudy
1:56 PM 72.0 °F 57.9 °F 61% 29.67 in 10.0 mi WSW 24.2 mph 29.9 mph N/A   Mostly Cloudy
2:56 PM 71.1 °F 57.9 °F 63% 29.68 in 10.0 mi West 23.0 mph 31.1 mph N/A   Mostly Cloudy
3:56 PM 69.1 °F 57.9 °F 68% 29.69 in 10.0 mi West 20.7 mph - N/A   Mostly Cloudy
4:56 PM 70.0 °F 55.9 °F 61% 29.70 in 10.0 mi West 19.6 mph 26.5 mph N/A   Partly Cloudy
5:56 PM 69.1 °F 55.9 °F 63% 29.70 in 10.0 mi West 17.3 mph 23.0 mph N/A   Clear
6:56 PM 66.0 °F 55.9 °F 70% 29.71 in 10.0 mi West 11.5 mph - N/A   Clear
7:56 PM 63.0 °F 55.9 °F 78% 29.72 in 10.0 mi SW 5.8 mph - N/A   Clear
8:56 PM 61.0 °F 55.9 °F 83% 29.73 in 10.0 mi WSW 5.8 mph - N/A   Clear
9:56 PM 60.1 °F 55.9 °F 86% 29.75 in 10.0 mi WSW 6.9 mph - N/A   Clear
10:56 PM 59.0 °F 55.9 °F 90% 29.75 in 10.0 mi WSW 5.8 mph - N/A   Clear
11:56 PM 57.9 °F 55.9 °F 93% 29.76 in 10.0 mi SW 3.5 mph - N/A   Clear